This is the latest recevied weather packets stored in our database for station/object DF1GD-10. If no packets are shown the sender has not sent any weather packets the latest 10 day(s).
| Time | Temp. | Humidity | Pressure | Rain* | Wind** | Luminosity | Snow |
|---|---|---|---|---|---|---|---|
| 1787911610 | 18.89° C | 77% | 1012.3 hPa | - | - | - | - |
| 1787910710 | 18.89° C | 78% | 1012.3 hPa | - | - | - | - |
| 1787909810 | 18.89° C | 78% | 1012.2 hPa | - | - | - | - |
| 1787908910 | 18.89° C | 76% | 1011.9 hPa | - | - | - | - |
| 1787908009 | 18.33° C | 81% | 1011.8 hPa | - | - | - | - |
| 1787907109 | 17.78° C | 82% | 1011.3 hPa | - | - | - | - |
| 1787906209 | 17.78° C | 84% | 1011.6 hPa | - | - | - | - |
| 1787905309 | 17.22° C | 84% | 1011.6 hPa | - | - | - | - |
| 1787904409 | 17.22° C | 85% | 1011 hPa | - | - | - | - |
| 1787903509 | 17.78° C | 81% | 1010.3 hPa | - | - | - | - |
| 1787902609 | 17.78° C | 81% | 1010.2 hPa | - | - | - | - |
| 1787901708 | 17.78° C | 80% | 1010.2 hPa | - | - | - | - |
| 1787900808 | 18.33° C | 78% | 1009.7 hPa | - | - | - | - |
| 1787899908 | 18.33° C | 77% | 1009.6 hPa | - | - | - | - |
| 1787899008 | 17.78° C | 78% | 1009.5 hPa | - | - | - | - |
| 1787898108 | 17.78° C | 79% | 1009.4 hPa | - | - | - | - |
| 1787897208 | 17.78° C | 80% | 1009.6 hPa | - | - | - | - |
| 1787896308 | 17.78° C | 80% | 1009.5 hPa | - | - | - | - |
| 1787895407 | 17.22° C | 80% | 1010.6 hPa | - | - | - | - |
| 1787894507 | 17.78° C | 79% | 1010.8 hPa | - | - | - | - |
| 1787893607 | 17.22° C | 80% | 1010.9 hPa | - | - | - | - |
| 1787892707 | 17.22° C | 79% | 1011.1 hPa | - | - | - | - |
| 1787891807 | 17.22° C | 79% | 1011.3 hPa | - | - | - | - |
| 1787890907 | 17.78° C | 74% | 1010 hPa | - | - | - | - |
| 1787890007 | 17.78° C | 75% | 1009.6 hPa | - | - | - | - |
* Rain since midnight (hover to see other rain measurements)
** Current wind speed in m/s (hover to see current wind gust speed)